Time,TemperatureF,DewpointF,PressureIn,WindDirection,WindDirectionDegrees,WindSpeedMPH,WindSpeedGustMPH,Humidity,HourlyPrecipIn,Conditions,Clouds,dailyrainin,SoftwareType,DateUTC
2015-05-22 00:05:00,76.5,69.1,30.02,SSW,201,0.0,0.0,78,0.00,,,0.00,Wunderground PWS Mod,2015-05-22 04:05:00,
2015-05-22 00:10:00,76.6,69.2,30.02,SSW,201,0.0,0.0,78,0.00,,,0.00,Wunderground PWS Mod,2015-05-22 04:10:00,
2015-05-22 00:20:00,77.0,69.2,30.02,SSW,201,0.0,0.0,77,0.00,,,0.00,Wunderground PWS Mod,2015-05-22 04:20:00,
2015-05-22 00:25:00,77.1,69.3,30.02,SSW,201,0.0,0.0,77,0.00,,,0.00,Wunderground PWS Mod,2015-05-22 04:25:00,
2015-05-22 00:35:00,76.9,69.1,30.02,SSW,201,0.0,0.0,77,0.00,,,0.00,Wunderground PWS Mod,2015-05-22 04:35:00,
2015-05-22 00:40:00,76.8,69.4,30.02,SSW,201,0.0,0.0,78,0.00,,,0.00,Wunderground PWS Mod,2015-05-22 04:40:00,
2015-05-22 00:45:00,76.5,69.1,30.02,SSW,201,0.0,0.0,78,0.00,,,0.00,Wunderground PWS Mod,2015-05-22 04:45:00,
2015-05-22 00:50:00,76.2,69.2,30.02,SSW,201,0.0,0.0,79,0.00,,,0.00,Wunderground PWS Mod,2015-05-22 04:50:00,
2015-05-22 00:55:00,76.3,69.3,30.02,SSW,201,0.0,0.0,79,0.00,,,0.00,Wunderground PWS Mod,2015-05-22 04:55:00,
2015-05-22 01:05:00,76.7,69.3,30.02,SSW,201,0.0,0.0,78,0.00,,,0.00,Wunderground PWS Mod,2015-05-22 05:05:00,
2015-05-22 01:10:00,76.8,69.0,30.02,SSW,201,0.0,0.0,77,0.00,,,0.00,Wunderground PWS Mod,2015-05-22 05:10:00,
2015-05-22 01:15:00,76.8,69.0,30.02,SSW,201,0.0,0.0,77,0.00,,,0.00,Wunderground PWS Mod,2015-05-22 05:15:00,
2015-05-22 01:25:00,76.8,69.0,30.01,SSW,201,0.0,0.0,77,0.00,,,0.00,Wunderground PWS Mod,2015-05-22 05:25:00,
2015-05-22 01:30:00,76.8,69.0,30.01,SSW,201,0.0,0.0,77,0.00,,,0.00,Wunderground PWS Mod,2015-05-22 05:30:00,
2015-05-22 01:35:00,76.7,68.9,30.01,SSW,201,0.0,0.0,77,0.00,,,0.00,Wunderground PWS Mod,2015-05-22 05:35:00,
2015-05-22 01:40:00,76.6,69.2,30.01,SSW,201,0.0,0.0,78,0.00,,,0.00,Wunderground PWS Mod,2015-05-22 05:40:00,
2015-05-22 01:45:00,76.5,69.1,30.01,SSW,201,0.0,0.0,78,0.00,,,0.00,Wunderground PWS Mod,2015-05-22 05:45:00,
2015-05-22 01:55:00,76.1,69.1,30.01,SSW,201,0.0,0.0,79,0.00,,,0.00,Wunderground PWS Mod,2015-05-22 05:55:00,
2015-05-22 02:05:00,75.7,69.1,30.01,SSW,201,0.0,0.0,80,0.00,,,0.00,Wunderground PWS Mod,2015-05-22 06:05:00,
2015-05-22 02:10:00,75.5,69.3,30.01,SSW,201,0.0,0.0,81,0.00,,,0.00,Wunderground PWS Mod,2015-05-22 06:10:00,
2015-05-22 02:15:00,75.4,69.2,30.01,SSW,201,0.0,0.0,81,0.00,,,0.00,Wunderground PWS Mod,2015-05-22 06:15:00,
2015-05-22 02:25:00,75.1,69.2,30.01,SSW,201,0.0,0.0,82,0.00,,,0.00,Wunderground PWS Mod,2015-05-22 06:25:00,
2015-05-22 02:30:00,75.1,69.2,30.01,SSW,201,0.0,0.0,82,0.00,,,0.00,Wunderground PWS Mod,2015-05-22 06:30:00,
2015-05-22 02:35:00,75.2,69.3,30.01,SSW,201,0.0,0.0,82,0.00,,,0.00,Wunderground PWS Mod,2015-05-22 06:35:00,
2015-05-22 02:40:00,75.2,69.3,30.01,SSW,201,0.0,0.0,82,0.00,,,0.00,Wunderground PWS Mod,2015-05-22 06:40:00,
2015-05-22 02:45:00,75.2,69.3,30.01,SSW,201,0.0,0.0,82,0.00,,,0.00,Wunderground PWS Mod,2015-05-22 06:45:00,
2015-05-22 02:50:00,75.0,69.5,30.01,SSW,201,0.0,0.0,83,0.00,,,0.00,Wunderground PWS Mod,2015-05-22 06:50:00,
2015-05-22 02:55:00,75.0,69.5,30.01,SSW,201,0.0,0.0,83,0.00,,,0.00,Wunderground PWS Mod,2015-05-22 06:55:00,
2015-05-22 03:05:00,74.8,69.3,30.00,SSW,201,0.0,0.0,83,0.00,,,0.00,Wunderground PWS Mod,2015-05-22 07:05:00,
2015-05-22 03:10:00,74.7,69.5,30.00,SSW,201,0.0,0.0,84,0.00,,,0.00,Wunderground PWS Mod,2015-05-22 07:10:00,
2015-05-22 03:15:00,74.7,69.5,30.00,SSW,201,0.0,0.0,84,0.00,,,0.00,Wunderground PWS Mod,2015-05-22 07:15:00,
2015-05-22 03:20:00,74.6,69.4,30.00,SSW,201,0.0,0.0,84,0.00,,,0.00,Wunderground PWS Mod,2015-05-22 07:20:00,
2015-05-22 03:30:00,74.4,69.2,30.00,SSW,201,0.0,0.0,84,0.00,,,0.00,Wunderground PWS Mod,2015-05-22 07:30:00,
2015-05-22 03:35:00,74.2,69.1,30.00,SSW,201,0.0,0.0,84,0.00,,,0.00,Wunderground PWS Mod,2015-05-22 07:35:00,
2015-05-22 03:40:00,74.0,69.2,30.00,SSW,201,0.0,0.0,85,0.00,,,0.00,Wunderground PWS Mod,2015-05-22 07:40:00,
2015-05-22 03:45:00,73.9,69.1,30.00,SSW,201,0.0,0.0,85,0.00,,,0.00,Wunderground PWS Mod,2015-05-22 07:45:00,
2015-05-22 03:50:00,73.8,69.3,30.00,SSW,201,0.0,0.0,86,0.00,,,0.00,Wunderground PWS Mod,2015-05-22 07:50:00,
2015-05-22 04:05:00,73.5,69.1,30.00,SSW,201,0.0,0.0,86,0.00,,,0.00,Wunderground PWS Mod,2015-05-22 08:05:00,
2015-05-22 04:10:00,73.5,69.1,30.00,SSW,201,0.0,0.0,86,0.00,,,0.00,Wunderground PWS Mod,2015-05-22 08:10:00,
2015-05-22 04:20:00,73.4,69.0,30.00,SSW,201,0.0,0.0,86,0.00,,,0.00,Wunderground PWS Mod,2015-05-22 08:20:00,
2015-05-22 04:25:00,73.2,68.8,30.00,SSW,201,0.0,0.0,86,0.00,,,0.00,Wunderground PWS Mod,2015-05-22 08:25:00,
2015-05-22 04:35:00,73.1,69.0,30.00,SSW,201,0.0,0.0,87,0.00,,,0.00,Wunderground PWS Mod,2015-05-22 08:35:00,
2015-05-22 04:40:00,73.1,69.0,30.00,SSW,201,0.0,0.0,87,0.00,,,0.00,Wunderground PWS Mod,2015-05-22 08:40:00,
2015-05-22 04:45:00,73.1,69.0,30.00,SSW,201,0.0,0.0,87,0.00,,,0.00,Wunderground PWS Mod,2015-05-22 08:45:00,
2015-05-22 04:50:00,73.0,68.9,30.00,SSW,201,0.0,0.0,87,0.00,,,0.00,Wunderground PWS Mod,2015-05-22 08:50:00,
2015-05-22 04:55:00,73.0,68.9,30.00,SSW,201,0.0,0.0,87,0.00,,,0.00,Wunderground PWS Mod,2015-05-22 08:55:00,
2015-05-22 05:05:00,73.0,68.9,30.01,SSW,201,0.0,0.0,87,0.00,,,0.00,Wunderground PWS Mod,2015-05-22 09:05:00,
2015-05-22 05:15:00,73.0,68.9,30.01,SSW,201,0.0,0.0,87,0.00,,,0.00,Wunderground PWS Mod,2015-05-22 09:15:00,
2015-05-22 05:20:00,73.0,68.9,30.01,SSW,201,0.0,0.0,87,0.00,,,0.00,Wunderground PWS Mod,2015-05-22 09:20:00,
2015-05-22 05:25:00,73.0,68.9,30.01,SSW,201,0.0,0.0,87,0.00,,,0.00,Wunderground PWS Mod,2015-05-22 09:25:00,
2015-05-22 05:30:00,73.1,69.0,30.01,SSW,201,0.0,0.0,87,0.00,,,0.00,Wunderground PWS Mod,2015-05-22 09:30:00,
2015-05-22 05:35:00,73.1,69.0,30.01,SSW,201,0.0,0.0,87,0.00,,,0.00,Wunderground PWS Mod,2015-05-22 09:35:00,
2015-05-22 05:45:00,72.9,69.1,30.01,SSW,201,0.0,0.0,88,0.00,,,0.00,Wunderground PWS Mod,2015-05-22 09:45:00,
2015-05-22 05:50:00,72.9,69.1,30.02,SSW,201,0.0,0.0,88,0.00,,,0.00,Wunderground PWS Mod,2015-05-22 09:50:00,
2015-05-22 06:00:00,72.9,69.1,30.02,SSW,201,0.0,0.0,88,0.00,,,0.00,Wunderground PWS Mod,2015-05-22 10:00:00,
2015-05-22 06:05:00,73.0,69.2,30.02,SSW,201,0.0,0.0,88,0.00,,,0.00,Wunderground PWS Mod,2015-05-22 10:05:00,
2015-05-22 06:15:00,72.9,69.1,30.02,SSW,201,0.0,0.0,88,0.00,,,0.00,Wunderground PWS Mod,2015-05-22 10:15:00,
2015-05-22 06:20:00,72.9,69.5,30.02,SSW,201,0.0,0.0,89,0.00,,,0.00,Wunderground PWS Mod,2015-05-22 10:20:00,
2015-05-22 06:25:00,72.9,69.5,30.02,SSW,201,0.0,0.0,89,0.00,,,0.00,Wunderground PWS Mod,2015-05-22 10:25:00,
2015-05-22 06:30:00,72.8,69.4,30.02,SSW,201,0.0,0.0,89,0.00,,,0.00,Wunderground PWS Mod,2015-05-22 10:30:00,
2015-05-22 06:35:00,72.7,69.3,30.03,SSW,201,0.0,0.0,89,0.00,,,0.00,Wunderground PWS Mod,2015-05-22 10:35:00,
2015-05-22 06:45:00,72.4,69.3,30.03,SSW,201,0.0,0.0,90,0.00,,,0.00,Wunderground PWS Mod,2015-05-22 10:45:00,
2015-05-22 06:50:00,72.3,69.2,30.03,SSW,201,0.0,0.0,90,0.00,,,0.00,Wunderground PWS Mod,2015-05-22 10:50:00,
2015-05-22 06:55:00,72.5,69.4,30.03,SSW,201,0.0,0.0,90,0.00,,,0.00,Wunderground PWS Mod,2015-05-22 10:55:00,
2015-05-22 07:00:00,72.8,69.7,30.03,SSW,201,0.0,0.0,90,0.00,,,0.00,Wunderground PWS Mod,2015-05-22 11:00:00,
2015-05-22 07:05:00,73.3,69.9,30.04,SSW,201,0.0,0.0,89,0.00,,,0.00,Wunderground PWS Mod,2015-05-22 11:05:00,
2015-05-22 07:15:00,74.0,70.2,30.04,SSW,201,0.0,0.0,88,0.00,,,0.00,Wunderground PWS Mod,2015-05-22 11:15:00,
2015-05-22 07:20:00,74.3,70.5,30.04,SSW,201,0.0,0.0,88,0.00,,,0.00,Wunderground PWS Mod,2015-05-22 11:20:00,
2015-05-22 07:25:00,74.4,70.3,30.04,SSW,201,0.0,0.0,87,0.00,,,0.00,Wunderground PWS Mod,2015-05-22 11:25:00,
2015-05-22 07:30:00,74.6,70.5,30.04,SSW,201,0.0,0.0,87,0.00,,,0.00,Wunderground PWS Mod,2015-05-22 11:30:00,
2015-05-22 07:35:00,74.9,70.8,30.05,SSW,201,0.0,0.0,87,0.00,,,0.00,Wunderground PWS Mod,2015-05-22 11:35:00,
2015-05-22 07:45:00,75.4,70.6,30.05,SSW,201,0.0,0.0,85,0.00,,,0.00,Wunderground PWS Mod,2015-05-22 11:45:00,
2015-05-22 07:50:00,75.6,70.8,30.05,SSW,201,0.0,0.0,85,0.00,,,0.00,Wunderground PWS Mod,2015-05-22 11:50:00,
2015-05-22 07:55:00,75.9,71.1,30.05,SSW,201,0.0,0.0,85,0.00,,,0.00,Wunderground PWS Mod,2015-05-22 11:55:00,
2015-05-22 08:00:00,76.2,71.4,30.05,SSW,201,0.0,0.0,85,0.00,,,0.00,Wunderground PWS Mod,2015-05-22 12:00:00,
2015-05-22 08:05:00,76.4,71.2,30.05,SSW,201,0.0,0.0,84,0.00,,,0.00,Wunderground PWS Mod,2015-05-22 12:05:00,
2015-05-22 08:15:00,77.2,71.3,30.05,SSW,201,0.0,0.0,82,0.00,,,0.00,Wunderground PWS Mod,2015-05-22 12:15:00,
2015-05-22 08:20:00,77.5,71.2,30.06,SSW,201,0.0,1.0,81,0.00,,,0.00,Wunderground PWS Mod,2015-05-22 12:20:00,
2015-05-22 08:25:00,77.7,71.4,30.06,SSW,201,0.0,1.0,81,0.00,,,0.00,Wunderground PWS Mod,2015-05-22 12:25:00,
2015-05-22 08:30:00,77.9,71.2,30.06,SSW,201,0.0,0.0,80,0.00,,,0.00,Wunderground PWS Mod,2015-05-22 12:30:00,
2015-05-22 08:35:00,78.3,71.6,30.06,SSW,201,0.0,0.0,80,0.00,,,0.00,Wunderground PWS Mod,2015-05-22 12:35:00,
2015-05-22 08:45:00,79.1,71.6,30.06,SSW,201,0.0,0.0,78,0.00,,,0.00,Wunderground PWS Mod,2015-05-22 12:45:00,
2015-05-22 08:50:00,79.3,71.5,30.06,SW,230,1.0,7.0,77,0.00,,,0.00,Wunderground PWS Mod,2015-05-22 12:50:00,
2015-05-22 08:55:00,79.3,71.1,30.06,SW,233,1.0,1.0,76,0.00,,,0.00,Wunderground PWS Mod,2015-05-22 12:55:00,
2015-05-22 09:00:00,79.8,71.6,30.06,WSW,248,1.0,1.0,76,0.00,,,0.00,Wunderground PWS Mod,2015-05-22 13:00:00,
2015-05-22 09:10:00,80.6,71.5,30.06,NNW,328,3.0,3.0,74,0.00,,,0.00,Wunderground PWS Mod,2015-05-22 13:10:00,
2015-05-22 09:15:00,81.1,71.6,30.06,NW,321,3.0,3.0,73,0.00,,,0.00,Wunderground PWS Mod,2015-05-22 13:15:00,
2015-05-22 09:20:00,81.3,71.0,30.07,NNW,339,1.0,1.0,71,0.00,,,0.00,Wunderground PWS Mod,2015-05-22 13:20:00,
2015-05-22 09:25:00,81.7,72.2,30.07,NNW,345,0.0,9.0,73,0.00,,,0.00,Wunderground PWS Mod,2015-05-22 13:25:00,